Location: Maignaut
(43.8886°N, 0.4051°E)
Time: 18:49:43
(UTC+00:00)

SJ-11-01 - Pass Details

Date: 17 January 2021
Orbit: 684 x 701 km, 98.0° (Epoch: 28 February)

Event Time Altitude Azimuth Distance (km) Brightness Sun altitude
Rises 18:25:23 0° 154° (SSE) 3,061 7.5 -17.0°
Reaches altitude 10° 18:27:39 10° 150° (SSE) 2,146 6.6 -17.4°
Maximum altitude 18:32:15 56° 72° (ENE) 823 4.3 -18.2°
Drops below altitude 10° 18:36:51 10° 355° (N) 2,151 6.8 -19.1°
Sets 18:39:08 0° 352° (N) 3,069 7.6 -19.5°
